Погода в Моршанске

Погода в Моршанске : погода сейчас, прогноз погоды и архив. Всё, что Вы хотите узнать о погоде в Моршанске!

Поиск расширенной информации на нашем сайте:

Другие новости

Новости СМИ2

Главная страница сайта

Новости сайта

02.10.2013

Напоминаем, что на нашем новом сайте вы можете получить высокодетализированные прогнозы погоды по пунктам России, СНГ и мира (включающие важные для авиации метеовеличины, такие как направление и скорость ветра, видимость, явления погоды, количество и форма облачности, нижняя и верхняя граница облачности), а также ознакомиться с разнообразными материалами по авиационной метеорологии и подборкой полезных ссылок на эту тему.

Сайт Метеоцентр.Азия посвящён разработке технологий оптимизации авиаметеорологического обслуживания, включая проектирование и перспективное создание нескольких автоматизированных авиаметеорологических систем:
- система выпуска высокодетальных прогностических карт явлений погоды для нижнего воздушного пространства по России и ближнему зарубежью;
- система верификации прогнозов TAF (выпускаемых синоптиками официальных АМСГ РФ и ближнего зарубежья) и AUTOTAF (выпускаемых сайтом Метеоцентр.Азия) - выявление ошибок, онлайн-сопоставление с фактической погодой METAR, автоматическое внесение коррективов в прогнозы при резком отклонении фактической погоды от прогноза, подсчёт оправдываемости прогнозов по элементам и в целом;
- система обработки, анализа и отображения авиаметеорологической информации для применения провайдерами метеорологической информации.

Рекомендуем: http://pro-biker.com.ua/ смотреть уроки вождения мотоцикла.

Погода в Моршанске - сегодня

Время (UTC), дата Ветер
(°,м/с) 
Видим.   Явления Облачность Т
(°С)
Тd
(°С)
f(%) Тe
(°С)
Pmin
(гПа)
dP
(гПа)
Po
(мм)
O2
(г/м3)
Тmin Tmax R s Состояние
почвы
18 24.06.17 тихо ()   10 км    ясно 
+11.8 +7.7 76 +12  1006.6  1.3  742  285           
21 24.06.17 260 (З) 10 км    ясно 
+10.6 +7.7 82 +12  1007.5  0.8  743  287           
00 25.06.17 260 (З) 4000 м  дымка  ясно 
+7.8 +6.5 91 +9  1008.6  0.9  744  290           
03 25.06.17 180 (Ю) 10 км    ясно 
+11.7 +8.2 79 +13  1008.8  0.5  744  286  +6.8         
06 25.06.17 240 (ЮЗ) 10 км    ясно 
+19.2 +8.9 51 +20  1008.6  0.1  744  279           
09 25.06.17 220 (ЮЗ) 10 км    6/6 600 м 
[Cu med, cong]
+21.7 +5.5 35 +22  1008.3  -0.1  744  277           
12 25.06.17 270 (З) 10 км    6/6 600 м 
[Cu med, cong]
+22.5 +5.9 34 +23  1008.2  744  276           
15 25.06.17 250 (З) 10 км    9/9 600 м 
[Sc]
+21.7 +6.4 37 +22  1008.2  -0.1  744  277    +23.6       
18 25.06.17 270 (З) 10 км  в посл. час ливневой дождь  4/0 средняя 
[Ac und]
+15.7 +5.8 52 +16  1008.5  744  282           
21 25.06.17 250 (З) 10 км    ясно 
+13.4 +8.4 72 +15  1008.6  744  284           
00 26.06.17 280 (З) 10 км    9/9 600 м 
[Sc]
+14.1 +10.9 81 +18  1008.5  744  283           
03 26.06.17 230 (ЮЗ) 4000 м  слаб. ливневой дождь  10/10 600 м кучево-дожд. 
[Cb cap]
+15.8 +14.4 91 +25  1009.8  1.3  745  281  +13.4    0.0     
06 26.06.17 210 (ЮЗ) 10 км  {ливн. осадки}  8/0 средняя 
[Ac cast]
+21.4 +15.4 69 +31  1009.4  745  275           
09 26.06.17 250 (З) 10 км    8/8 600 м 
[Cu med, cong]
+25.4 +11.5 42 +29  1009.2  -0.1  745  272           
12 26.06.17 220 (ЮЗ) 10 км    9/8 600 м верхняя 
[Cu med, cong|Ci fib]
+26.5 +12.2 41 +31  1008.5  -0.6  744  271           
15 26.06.17 230 (ЮЗ) 10 км    8/0 средняя 
[Ac und]
+22.1 +10 46 +23  1008.5  -0.2  744  276    +27  0.0     
18 26.06.17 240 (ЮЗ) 10 км    6/0 средняя 
[Ac und]
+21.6 +12.4 56 +26  1007.4  -1  743  275           
21 26.06.17 200 (Ю) 4000 м  слаб. ливневой дождь  10/10 600 м кучево-дожд. 
[Cb cap]
+17.8 +15.4 86 +29  1008.6  744  278           
00 27.06.17 170 (Ю) 4000 м  дымка{ливн. осадки}  9/9 600 м 
[Sc]
+17.1 +15.2 89 +28  1007.1  -1.5  743  278           
03 27.06.17 250 (З) 4000 м  дымка  9/9 600 м 
[Sc]
+19.1 +18 93 +35  1006.1  -0.8  742  275  +17.1    12     
06 27.06.17 250 (З) 10 км  {ливн. осадки}  9/8 600 м кучево-дожд., средняя 
[Cb cap|Ac cuf]
+20.8 +18.1 85 +36  1006.9  0.9  743  274           
09 27.06.17 250 (З) 10 км    8/3 600 м кучево-дожд., средняя 
[Cb calv|Ac cuf]
+23.8 +15.9 61 +34  1007.5  0.7  743  272           
12 27.06.17 300 (СЗ) 2{12}  4000 м  слаб. ливневой дождь  9/9 600 м кучево-дожд. 
[Cb cap]
+18.3 +17.4 94 +32  1008.3  0.5  744  277           
15 27.06.17 270 (З) 10 км  {ливн. осадки}  8/3 600 м кучево-дожд., средняя, верхняя 
[Cb calv|Ac trans|Ci fib]
+23.3 +15.3 61 +33  1007.9  -0.1  744  273    +25.9     
18 27.06.17 240 (ЮЗ) 10 км  {ливн. осадки}  3/3 600 м 
[Sc diur, vesp]
+20.2 +15.7 75 +30  1009.3  1.1  745  276           
Время (UTC), дата Ветер
(°,м/с) 
Видим.   Явления Облачность Т
(°С)
Тd
(°С)
f(%) Тe
(°С)
Pmin
(гПа)
dP
(гПа)
Po
(мм)
O2
(г/м3)
Тmin Tmax R s Состояние
почвы

Для получения пояснительной информации подведите курсор к названию столбца.

ПОГОДА в Моршанске - архив

Всё, что Вы хотите узнать о погоде в Моршанске - удобно и подробно!

Выберите нужную дату (начиная с 1 января 2015* года) и нажмите кнопку "Найти".
Будут отображены архивные сводки погоды по пункту Моршанск, начиная с указанной даты.


Отображать данные в формате CSV (для использования в таблицах Excel)


Внимание! Наш архив погоды предназначен исключительно для личного некоммерческого использования в познавательных целях. Если Вам необходимы официальные справки о состоянии погоды (для производственных, юридических, коммерческих и т.п. целей), обращайтесь в органы Росгидромета.

*Примечание: данная дата относится к архиву по метеостанциям СССР (Россия, СНГ, Балтия).
Архив по метеостанциям Зарубежной Европы и Азии (кроме Китая) хранится 10 дней, по другим регионам земного шара (Китай, Африка, Америка, Австралия, Океания) - 1 день.

Моршанск - район местоположения метеостанции


Название, широта, долгота, высота метеостанции:
Моршанск 53.4°ш. 41.8°д. 142 м над ур. моря [Российская Федерация]

Дополнительная информация

В oтличие oт бoльшинства пoгoдных сайтoв мы публикуем пoдрoбную метеoинфoрмацию в детальнoм прoфессиoнальнoм фoрмате.

Характеристики температуры и влажнoсти вoздуха измеряются на высoте 2 м в тени вдали oт зданий и деревьев.
Скoрoсть ветра измеряется на высoте 10 м (на урoвне рoста челoвека скoрoсть ветра ниже в 1.5-2 раза). Если метеoстанция нахoдится в гoрoде или в лесу, тo скoрoсть ветра занижена на 2-4 м/с пo сравнению с oткрытым местoм. Скoрoсть ветра над акватoриями крупных рек и oзёр, а также на вершинах хoлмoв на 2-5 м/с выше, чем в oбычных услoвиях.
Атмoсфернoе давление в разных тoчках местнoсти мoжет значительнo oтличаться oт давления на метеoстанции, в зависимoсти oт услoвий рельефа (при пoдъёме на 10 м давление пoнижается примернo на 1 мм рт.ст.).